ASA465 KPDX-KSEA

Flight info

Callsign ASA465
Flight time 0h 35m
Altitude 14000
Route COUGA KRIEG HAWKZ8
Aircraft B739/M-SDE2E3FGHIRWXY/LB1

Departure

Time 2026-05-05 23:15
Airport Portland International Airport (KPDX)

Arrival

Time 2026-05-05 23:51
Airport Seattle–Tacoma International Airport (KSEA)
Time Latitude Longitude Altitude Speed Heading
2026-05-05 22:29 45.58853 -122.59695 35 ft 0 kts
2026-05-05 23:06 45.58850 -122.59696 35 ft 3 kts
2026-05-05 23:06 45.58826 -122.59704 33 ft 4 kts 25°
2026-05-05 23:07 45.58805 -122.59726 33 ft 4 kts 56°
2026-05-05 23:07 45.58797 -122.59758 33 ft 4 kts 101°
2026-05-05 23:07 45.58799 -122.59773 31 ft 0 kts 119°
2026-05-05 23:10 45.58797 -122.59768 35 ft 2 kts 119°
2026-05-05 23:10 45.58775 -122.59712 35 ft 11 kts 119°
2026-05-05 23:11 45.58724 -122.59580 34 ft 18 kts 118°
2026-05-05 23:11 45.58659 -122.59429 34 ft 18 kts 127°
2026-05-05 23:11 45.58583 -122.59296 30 ft 18 kts 129°
2026-05-05 23:11 45.58507 -122.59160 31 ft 17 kts 129°
2026-05-05 23:12 45.58431 -122.59027 29 ft 19 kts 127°
2026-05-05 23:12 45.58358 -122.58854 30 ft 21 kts 119°
2026-05-05 23:12 45.58288 -122.58678 31 ft 20 kts 119°
2026-05-05 23:12 45.58223 -122.58509 32 ft 14 kts 119°
2026-05-05 23:13 45.58216 -122.58490 32 ft 2 kts 120°
2026-05-05 23:13 45.58199 -122.58447 29 ft 8 kts 119°
2026-05-05 23:13 45.58160 -122.58372 29 ft 10 kts 147°
2026-05-05 23:13 45.58095 -122.58379 30 ft 10 kts 206°
2026-05-05 23:14 45.58068 -122.58438 32 ft 7 kts 288°
2026-05-05 23:14 45.58093 -122.58504 33 ft 10 kts 299°
2026-05-05 23:14 45.58195 -122.58764 35 ft 60 kts 299°
2026-05-05 23:14 45.58500 -122.59544 35 ft 116 kts 300°
2026-05-05 23:15 45.58962 -122.60724 33 ft 157 kts 300°
2026-05-05 23:15 45.59511 -122.62131 394 ft 163 kts 299°
2026-05-05 23:15 45.60083 -122.63576 861 ft 170 kts 298°
2026-05-05 23:15 45.60649 -122.65095 1309 ft 178 kts 298°
2026-05-05 23:16 45.61249 -122.66733 1583 ft 195 kts 297°
2026-05-05 23:16 45.61888 -122.68535 1883 ft 209 kts 297°
2026-05-05 23:16 45.62329 -122.69794 2112 ft 218 kts 297°
2026-05-05 23:16 45.63022 -122.71762 2695 ft 222 kts 298°
2026-05-05 23:17 45.63715 -122.73708 3504 ft 218 kts 298°
2026-05-05 23:17 45.64624 -122.75453 4010 ft 226 kts 323°
2026-05-05 23:17 45.66124 -122.76320 4276 ft 243 kts 356°
2026-05-05 23:17 45.67835 -122.76163 4787 ft 254 kts
2026-05-05 23:18 45.69643 -122.75804 5139 ft 269 kts
2026-05-05 23:18 45.71493 -122.75410 5857 ft 268 kts
2026-05-05 23:18 45.73357 -122.75009 6475 ft 274 kts
2026-05-05 23:18 45.75261 -122.74612 7088 ft 278 kts
2026-05-05 23:19 45.77155 -122.74225 7837 ft 277 kts
2026-05-05 23:19 45.79079 -122.73835 8517 ft 281 kts
2026-05-05 23:19 45.81013 -122.73443 9319 ft 281 kts
2026-05-05 23:19 45.82973 -122.73045 10010 ft 285 kts
2026-05-05 23:20 45.84959 -122.72642 10493 ft 298 kts
2026-05-05 23:20 45.87087 -122.72210 10732 ft 318 kts
2026-05-05 23:20 45.89306 -122.71759 11258 ft 325 kts
2026-05-05 23:20 45.91562 -122.71301 11965 ft 328 kts
2026-05-05 23:21 45.93834 -122.70838 12459 ft 330 kts
2026-05-05 23:21 45.96103 -122.70376 12961 ft 330 kts
2026-05-05 23:21 45.98386 -122.69910 13366 ft 335 kts
2026-05-05 23:21 46.00696 -122.69439 13612 ft 335 kts
2026-05-05 23:22 46.03001 -122.68968 13867 ft 333 kts
2026-05-05 23:22 46.05298 -122.68499 14000 ft 336 kts
2026-05-05 23:22 46.07619 -122.68026 14006 ft 336 kts
2026-05-05 23:22 46.09940 -122.67833 13995 ft 334 kts 357°
2026-05-05 23:23 46.12249 -122.68213 14005 ft 334 kts 353°
2026-05-05 23:23 46.14547 -122.68690 14008 ft 334 kts 352°
2026-05-05 23:23 46.16850 -122.69173 14019 ft 335 kts 352°
2026-05-05 23:23 46.19130 -122.69644 14015 ft 335 kts 352°
2026-05-05 23:24 46.21437 -122.70112 14005 ft 335 kts 353°
2026-05-05 23:24 46.23745 -122.70575 14016 ft 335 kts 353°
2026-05-05 23:24 46.26054 -122.71034 14009 ft 335 kts 353°
2026-05-05 23:24 46.28364 -122.71493 14003 ft 335 kts 353°
2026-05-05 23:25 46.30680 -122.71953 14003 ft 335 kts 353°
2026-05-05 23:25 46.32993 -122.72351 14004 ft 335 kts 356°
2026-05-05 23:25 46.35321 -122.72498 14004 ft 334 kts 359°
2026-05-05 23:25 46.37643 -122.72553 14006 ft 334 kts 359°
2026-05-05 23:26 46.39966 -122.72593 14012 ft 334 kts 359°
2026-05-05 23:26 46.42295 -122.72641 13989 ft 334 kts 359°
2026-05-05 23:26 46.44621 -122.72701 13991 ft 334 kts 359°
2026-05-05 23:26 46.46946 -122.72770 13995 ft 334 kts 359°
2026-05-05 23:27 46.49270 -122.72846 14007 ft 334 kts 359°
2026-05-05 23:27 46.51561 -122.72925 14003 ft 334 kts 359°
2026-05-05 23:27 46.53882 -122.73007 14001 ft 334 kts 359°
2026-05-05 23:27 46.56207 -122.73090 13988 ft 333 kts 359°
2026-05-05 23:28 46.58526 -122.73173 13996 ft 333 kts 359°
2026-05-05 23:28 46.60846 -122.73257 13999 ft 333 kts 359°
2026-05-05 23:28 46.63164 -122.73341 14007 ft 333 kts 359°
2026-05-05 23:28 46.65482 -122.73425 14012 ft 333 kts 359°
2026-05-05 23:29 46.67803 -122.73509 13993 ft 331 kts 359°
2026-05-05 23:29 46.70083 -122.73592 13989 ft 324 kts 359°
2026-05-05 23:29 46.72325 -122.73673 13986 ft 321 kts 359°
2026-05-05 23:29 46.74562 -122.73755 13993 ft 322 kts 359°
2026-05-05 23:30 46.76773 -122.73806 13994 ft 322 kts
2026-05-05 23:30 46.78939 -122.73021 14007 ft 323 kts 24°
2026-05-05 23:30 46.80844 -122.71276 13999 ft 325 kts 37°
2026-05-05 23:30 46.82589 -122.69158 13989 ft 325 kts 39°
2026-05-05 23:31 46.84323 -122.67038 14001 ft 326 kts 38°
2026-05-05 23:31 46.86079 -122.64942 13993 ft 326 kts 37°
2026-05-05 23:31 46.87869 -122.62906 13987 ft 323 kts 36°
2026-05-05 23:31 46.89615 -122.60933 13972 ft 311 kts 36°
2026-05-05 23:32 46.91292 -122.59029 13964 ft 297 kts 36°
2026-05-05 23:32 46.92874 -122.57229 13965 ft 288 kts 36°
2026-05-05 23:32 46.94592 -122.55751 13978 ft 289 kts 18°
2026-05-05 23:32 46.96544 -122.54890 13987 ft 297 kts 15°
2026-05-05 23:33 46.98544 -122.54067 13930 ft 300 kts 15°
2026-05-05 23:33 47.00561 -122.53223 13673 ft 301 kts 15°
2026-05-05 23:33 47.02580 -122.52359 13312 ft 302 kts 16°
2026-05-05 23:33 47.04582 -122.51489 12976 ft 299 kts 16°
2026-05-05 23:34 47.06570 -122.50621 12624 ft 297 kts 16°
2026-05-05 23:34 47.08554 -122.49815 12235 ft 296 kts 11°
2026-05-05 23:34 47.10604 -122.49400 11817 ft 297 kts
2026-05-05 23:34 47.12660 -122.49097 11467 ft 296 kts
2026-05-05 23:35 47.14705 -122.48771 11105 ft 295 kts
2026-05-05 23:35 47.16740 -122.48418 10754 ft 294 kts
2026-05-05 23:35 47.18770 -122.48053 10411 ft 293 kts
2026-05-05 23:35 47.20788 -122.47720 10150 ft 289 kts
2026-05-05 23:36 47.22751 -122.47424 10044 ft 279 kts
2026-05-05 23:36 47.24678 -122.47137 9723 ft 278 kts
2026-05-05 23:36 47.26597 -122.46849 9401 ft 277 kts
2026-05-05 23:36 47.28508 -122.46559 9068 ft 275 kts
2026-05-05 23:37 47.30407 -122.46270 8756 ft 274 kts
2026-05-05 23:37 47.32302 -122.45980 8441 ft 273 kts
2026-05-05 23:37 47.34181 -122.45692 8159 ft 270 kts
2026-05-05 23:37 47.35985 -122.45473 8116 ft 257 kts
2026-05-05 23:38 47.37746 -122.45463 7951 ft 252 kts 359°
2026-05-05 23:38 47.39498 -122.45487 7696 ft 250 kts 359°
2026-05-05 23:38 47.41240 -122.45508 7453 ft 249 kts 359°
2026-05-05 23:38 47.42970 -122.45523 7214 ft 248 kts 359°
2026-05-05 23:39 47.44700 -122.45530 6928 ft 250 kts 359°
2026-05-05 23:39 47.46453 -122.45533 6582 ft 254 kts 359°
2026-05-05 23:39 47.48228 -122.45535 6238 ft 256 kts 359°
2026-05-05 23:39 47.49970 -122.45534 6148 ft 242 kts 359°
2026-05-05 23:40 47.51596 -122.45543 6098 ft 226 kts 359°
2026-05-05 23:40 47.53167 -122.45593 5976 ft 228 kts 358°
2026-05-05 23:40 47.54777 -122.45652 5642 ft 233 kts 358°
2026-05-05 23:40 47.56391 -122.45684 5403 ft 230 kts 359°
2026-05-05 23:41 47.57987 -122.45710 5184 ft 227 kts 359°
2026-05-05 23:41 47.59544 -122.45733 4962 ft 225 kts 359°
2026-05-05 23:41 47.61101 -122.45755 4735 ft 222 kts 359°
2026-05-05 23:41 47.62643 -122.45776 4501 ft 220 kts 359°
2026-05-05 23:42 47.64166 -122.45792 4266 ft 218 kts 359°
2026-05-05 23:42 47.65677 -122.45805 4061 ft 215 kts 359°
2026-05-05 23:42 47.67185 -122.45818 4020 ft 222 kts 359°
2026-05-05 23:42 47.68728 -122.45827 3983 ft 221 kts 359°
2026-05-05 23:43 47.70242 -122.45834 3963 ft 215 kts 359°
2026-05-05 23:43 47.71725 -122.45839 3958 ft 212 kts 359°
2026-05-05 23:43 47.73175 -122.45569 3957 ft 213 kts 23°
2026-05-05 23:43 47.74299 -122.44184 3981 ft 219 kts 57°
2026-05-05 23:44 47.74745 -122.42055 3993 ft 216 kts 82°
2026-05-05 23:44 47.74856 -122.39871 3968 ft 210 kts 84°
2026-05-05 23:44 47.74879 -122.37728 3964 ft 206 kts 98°
2026-05-05 23:44 47.74260 -122.35853 3983 ft 206 kts 135°
2026-05-05 23:45 47.73105 -122.34502 3982 ft 210 kts 144°
2026-05-05 23:45 47.71909 -122.33263 3994 ft 213 kts 145°
2026-05-05 23:45 47.70674 -122.32023 3997 ft 215 kts 150°
2026-05-05 23:45 47.69245 -122.31526 3992 ft 212 kts 187°
2026-05-05 23:46 47.67778 -122.31772 3992 ft 212 kts 180°
2026-05-05 23:46 47.66344 -122.31640 4030 ft 198 kts 178°
2026-05-05 23:46 47.65005 -122.31578 3987 ft 192 kts 181°
2026-05-05 23:46 47.63663 -122.31619 3900 ft 196 kts 182°
2026-05-05 23:47 47.62283 -122.31667 3512 ft 199 kts 181°
2026-05-05 23:47 47.60934 -122.31674 3313 ft 190 kts 181°
2026-05-05 23:47 47.59627 -122.31673 3037 ft 185 kts 182°
2026-05-05 23:47 47.58364 -122.31685 2823 ft 178 kts 181°
2026-05-05 23:48 47.57119 -122.31701 2593 ft 180 kts 182°
2026-05-05 23:48 47.55856 -122.31707 2372 ft 181 kts 181°
2026-05-05 23:48 47.54602 -122.31719 2121 ft 180 kts 182°
2026-05-05 23:48 47.53364 -122.31736 1825 ft 175 kts 182°
2026-05-05 23:49 47.52193 -122.31742 1644 ft 161 kts 181°
2026-05-05 23:49 47.51106 -122.31749 1448 ft 156 kts 181°
2026-05-05 23:49 47.50022 -122.31756 1203 ft 158 kts 181°
2026-05-05 23:49 47.48913 -122.31765 968 ft 160 kts 184°
2026-05-05 23:50 47.47793 -122.31779 771 ft 159 kts 184°
2026-05-05 23:50 47.46689 -122.31785 521 ft 157 kts 183°
2026-05-05 23:50 47.45636 -122.31797 407 ft 135 kts 180°
2026-05-05 23:50 47.44957 -122.31801 390 ft 50 kts 180°
2026-05-05 23:51 47.44729 -122.31791 385 ft 29 kts 169°
2026-05-05 23:51 47.44544 -122.31708 377 ft 27 kts 154°
2026-05-05 23:51 47.44413 -122.31599 373 ft 21 kts 148°
2026-05-05 23:51 47.44295 -122.31489 376 ft 20 kts 141°
2026-05-05 23:52 47.44272 -122.31391 379 ft 0 kts 79°
2026-05-05 23:52 47.44271 -122.31389 379 ft 1 kts 104°
2026-05-05 23:52 47.44269 -122.31389 379 ft 0 kts 133°